Flag for Saudi Arabia Weather past 2 weeks in Riyadh, Saudi Arabia

Now
82 °F

Sunny.


Feels Like: 82 °F
Forecast: 77 / 98 °F
Wind: 6 mph from South

Location: King Khaled International Airport

Current Time: Oct 1, 2014 at 8:59:20 AM

Latest Report: Oct 1, 2014 at 8:00 AM


Visibility: 10 mi

Pressure: 29.98 "Hg

Humidity: 42%

Dew point: 57 °F

Location of RiyadhLocation

Historic Weather in Riyadh — Graph

°F

Riyadh temperature yesterday

Maximum temperature yesterday: 95 °F (at 2:00 PM)
Minimum temperature yesterday: 70 °F (at 5:00 AM)
Average temperature yesterday: 83 °F

Past Weeks' High & Low Weather Summary

 TemperatureHumidityPressure
High108 °F (Sep 16, 3:00 PM)42% (Oct 1, 8:00 AM)30.04 "Hg (Oct 1, 8:00 AM)
Low70 °F (Sep 30, 5:00 AM)7% (Sep 16, 5:00 PM)29.74 "Hg (Sep 16, 2:00 PM)
Average88 °F15%29.90 "Hg
* Reported Sep 16 8:00 AM — Oct 1 8:00 AM, Riyadh, Weather by CustomWeather, © 2014

Note: Actual official high and low records may vary slightly from our data, if they occured in-between our weather recording intervals... More about our weather records

Advertising

Riyadh weather history for previous 24 hours

 ConditionsComfort  
Time TempWeatherWind HumidityBarometerVisibility
8:00 AM
Oct 1
82 °FSunny.6 mph42%29.98 "Hg10 mi
7:00 AM77 °FSunny.No wind32%29.98 "Hg10 mi
6:00 AM73 °FSunny.No wind33%29.98 "Hg10 mi
5:00 AM73 °FClear.No wind31%29.95 "Hg10 mi
4:00 AM75 °FClear.No wind29%29.95 "Hg10 mi
3:00 AM75 °FClear.No wind27%29.92 "Hg10 mi
2:00 AM77 °FClear.No wind26%29.95 "Hg10 mi
1:00 AM79 °FClear.No wind24%29.95 "Hg10 mi
12:00 AM79 °FClear.No wind28%29.95 "Hg10 mi
11:00 PM
Sep 30
79 °FClear.3 mph26%29.98 "Hg10 mi
10:00 PM82 °FClear.No wind23%29.98 "Hg10 mi
9:00 PM82 °FClear.3 mph25%29.98 "Hg10 mi
8:00 PM82 °FClear.3 mph26%29.95 "Hg10 mi
7:00 PM86 °FClear.2 mph20%29.92 "Hg10 mi
6:00 PM91 °FClear.2 mph17%29.92 "Hg10 mi
5:00 PM93 °FSunny.5 mph14%29.92 "Hg10 mi
4:00 PM95 °FSunny.5 mph15%29.92 "Hg10 mi
3:00 PM95 °FSunny.5 mph14%29.92 "Hg10 mi
2:00 PM95 °FSunny.6 mph14%29.92 "Hg10 mi
1:00 PM93 °FSunny.9 mph15%29.92 "Hg10 mi
12:00 PM93 °FSunny.8 mph14%29.95 "Hg10 mi
11:00 AM91 °FSunny.8 mph13%29.98 "Hg10 mi
10:00 AM90 °FSunny.8 mph18%29.98 "Hg10 mi
9:00 AM86 °FSunny.5 mph15%30.01 "Hg10 mi
8:00 AM81 °FSunny.No wind18%30.01 "Hg10 mi
Weather by CustomWeather, © 2014

See weather overviewHow to use our weather pages